Wetterdaten: Freitag, 08.09.2017
Datum Zeit Temp. Auen Feucht Auen Luftdruck Regen Richtung Richtung Windben
08.09.2017 00:00 8,6 C 94 % 1016,9 hPa 0,0 mm W 279 1,6 km/h (1 Bft)
08.09.2017 00:05 8,6 C 94 % 1017,0 hPa 0,0 mm W 279 0,0 km/h (0 Bft)
08.09.2017 00:10 8,5 C 94 % 1017,3 hPa 0,0 mm W 279 0,0 km/h (0 Bft)
08.09.2017 00:15 8,4 C 94 % 1017,3 hPa 0,0 mm W 279 0,0 km/h (0 Bft)
08.09.2017 00:20 8,6 C 95 % 1017,2 hPa 0,0 mm W 279 0,0 km/h (0 Bft)
08.09.2017 00:25 8,7 C 94 % 1017,2 hPa 0,0 mm W 279 0,0 km/h (0 Bft)
08.09.2017 00:30 8,5 C 94 % 1017,1 hPa 0,0 mm W 279 0,0 km/h (0 Bft)
08.09.2017 00:35 8,3 C 94 % 1017,2 hPa 0,0 mm W 279 0,0 km/h (0 Bft)
08.09.2017 00:40 8,3 C 94 % 1017,1 hPa 0,0 mm W 279 0,0 km/h (0 Bft)
08.09.2017 00:45 8,4 C 94 % 1017,2 hPa 0,0 mm W 279 3,2 km/h (1 Bft)
08.09.2017 00:50 8,5 C 94 % 1017,3 hPa 0,0 mm W 279 1,6 km/h (1 Bft)
08.09.2017 00:55 8,6 C 95 % 1017,2 hPa 0,0 mm W 279 3,2 km/h (1 Bft)
08.09.2017 01:00 8,6 C 94 % 1017,2 hPa 0,0 mm W 279 1,6 km/h (1 Bft)
08.09.2017 01:05 8,4 C 94 % 1017,2 hPa 0,0 mm W 279 1,6 km/h (1 Bft)
08.09.2017 01:10 8,2 C 94 % 1017,1 hPa 0,0 mm W 279 1,6 km/h (1 Bft)
08.09.2017 01:15 8,3 C 95 % 1017,0 hPa 0,0 mm W 279 3,2 km/h (1 Bft)
08.09.2017 01:20 8,4 C 95 % 1016,9 hPa 0,0 mm W 279 3,2 km/h (1 Bft)
08.09.2017 01:25 8,3 C 95 % 1016,9 hPa 0,0 mm W 279 0,0 km/h (0 Bft)
08.09.2017 01:30 8,2 C 95 % 1016,8 hPa 0,0 mm W 279 0,0 km/h (0 Bft)
08.09.2017 01:35 8,1 C 94 % 1016,8 hPa 0,0 mm W 279 0,0 km/h (0 Bft)
08.09.2017 01:40 8,1 C 94 % 1016,8 hPa 0,0 mm W 279 0,0 km/h (0 Bft)
08.09.2017 01:45 7,9 C 95 % 1016,7 hPa 0,0 mm W 279 0,0 km/h (0 Bft)
08.09.2017 01:50 8,0 C 95 % 1016,7 hPa 0,0 mm W 279 0,0 km/h (0 Bft)
08.09.2017 01:55 7,9 C 95 % 1016,6 hPa 0,0 mm W 279 0,0 km/h (0 Bft)
08.09.2017 02:00 7,9 C 95 % 1016,6 hPa 0,0 mm W 279 0,0 km/h (0 Bft)
08.09.2017 02:05 7,8 C 94 % 1016,6 hPa 0,0 mm W 279 0,0 km/h (0 Bft)
08.09.2017 02:10 7,9 C 95 % 1016,5 hPa 0,0 mm W 279 0,0 km/h (0 Bft)
08.09.2017 02:15 7,7 C 94 % 1016,5 hPa 0,0 mm W 279 0,0 km/h (0 Bft)
08.09.2017 02:20 7,6 C 94 % 1016,5 hPa 0,0 mm W 279 0,0 km/h (0 Bft)
08.09.2017 02:25 7,6 C 94 % 1016,5 hPa 0,0 mm W 279 0,0 km/h (0 Bft)
08.09.2017 02:30 7,4 C 95 % 1016,4 hPa 0,0 mm W 279 1,6 km/h (1 Bft)
08.09.2017 02:35 7,4 C 95 % 1016,4 hPa 0,0 mm W 279 1,6 km/h (1 Bft)
08.09.2017 02:40 7,4 C 95 % 1016,4 hPa 0,0 mm W 279 0,0 km/h (0 Bft)
08.09.2017 02:45 7,4 C 95 % 1016,4 hPa 0,0 mm W 279 3,2 km/h (1 Bft)
08.09.2017 02:50 7,3 C 95 % 1016,4 hPa 0,0 mm W 279 0,0 km/h (0 Bft)
08.09.2017 02:55 7,3 C 95 % 1016,5 hPa 0,0 mm W 279 1,6 km/h (1 Bft)
08.09.2017 03:00 7,4 C 95 % 1016,5 hPa 0,0 mm W 279 3,2 km/h (1 Bft)
08.09.2017 03:05 7,2 C 95 % 1016,5 hPa 0,0 mm W 279 0,0 km/h (0 Bft)
08.09.2017 03:10 7,2 C 95 % 1016,4 hPa 0,0 mm W 279 0,0 km/h (0 Bft)
08.09.2017 03:15 7,2 C 95 % 1016,4 hPa 0,0 mm W 279 3,2 km/h (1 Bft)
08.09.2017 03:20 7,3 C 95 % 1016,5 hPa 0,0 mm W 279 3,2 km/h (1 Bft)
08.09.2017 03:25 7,2 C 95 % 1016,5 hPa 0,0 mm W 279 1,6 km/h (1 Bft)
08.09.2017 03:30 7,1 C 95 % 1016,4 hPa 0,0 mm W 279 0,0 km/h (0 Bft)
08.09.2017 03:35 7,1 C 95 % 1016,3 hPa 0,0 mm W 279 0,0 km/h (0 Bft)
08.09.2017 03:40 7,2 C 95 % 1016,3 hPa 0,0 mm W 279 1,6 km/h (1 Bft)
08.09.2017 03:45 7,1 C 95 % 1016,3 hPa 0,0 mm W 279 1,6 km/h (1 Bft)
08.09.2017 03:50 7,3 C 95 % 1016,1 hPa 0,0 mm W 279 0,0 km/h (0 Bft)
08.09.2017 03:55 7,4 C 95 % 1016,1 hPa 0,0 mm W 279 0,0 km/h (0 Bft)
08.09.2017 04:00 7,4 C 95 % 1016,0 hPa 0,0 mm W 279 1,6 km/h (1 Bft)
08.09.2017 04:05 7,3 C 95 % 1016,0 hPa 0,0 mm W 279 0,0 km/h (0 Bft)
08.09.2017 04:10 7,1 C 95 % 1016,0 hPa 0,0 mm W 279 0,0 km/h (0 Bft)
08.09.2017 04:15 7,0 C 95 % 1015,8 hPa 0,0 mm W 279 0,0 km/h (0 Bft)
08.09.2017 04:20 7,1 C 95 % 1015,7 hPa 0,0 mm W 279 1,6 km/h (1 Bft)
08.09.2017 04:25 7,2 C 95 % 1015,7 hPa 0,0 mm W 279 0,0 km/h (0 Bft)
08.09.2017 04:30 6,9 C 95 % 1015,6 hPa 0,0 mm W 279 0,0 km/h (0 Bft)
08.09.2017 04:35 6,8 C 95 % 1015,6 hPa 0,0 mm W 279 0,0 km/h (0 Bft)
08.09.2017 04:40 6,8 C 95 % 1015,5 hPa 0,0 mm W 279 0,0 km/h (0 Bft)
08.09.2017 04:45 6,8 C 95 % 1015,5 hPa 0,0 mm W 279 0,0 km/h (0 Bft)
08.09.2017 04:50 6,9 C 95 % 1015,6 hPa 0,0 mm W 279 0,0 km/h (0 Bft)
08.09.2017 04:55 7,0 C 95 % 1015,5 hPa 0,0 mm W 279 0,0 km/h (0 Bft)
08.09.2017 05:00 6,8 C 95 % 1015,5 hPa 0,0 mm W 279 0,0 km/h (0 Bft)
08.09.2017 05:05 6,6 C 95 % 1015,5 hPa 0,0 mm W 279 0,0 km/h (0 Bft)
08.09.2017 05:10 6,7 C 95 % 1015,5 hPa 0,0 mm W 279 0,0 km/h (0 Bft)
08.09.2017 05:15 6,6 C 95 % 1015,4 hPa 0,0 mm W 279 0,0 km/h (0 Bft)
08.09.2017 05:20 6,7 C 95 % 1015,4 hPa 0,0 mm W 279 0,0 km/h (0 Bft)
08.09.2017 05:25 6,7 C 95 % 1015,4 hPa 0,0 mm W 279 0,0 km/h (0 Bft)
08.09.2017 05:30 6,6 C 95 % 1015,4 hPa 0,0 mm W 279 0,0 km/h (0 Bft)
08.09.2017 05:35 6,6 C 95 % 1015,3 hPa 0,0 mm W 279 0,0 km/h (0 Bft)
08.09.2017 05:40 6,7 C 95 % 1015,2 hPa 0,0 mm W 279 0,0 km/h (0 Bft)
08.09.2017 05:45 6,6 C 95 % 1015,1 hPa 0,0 mm W 279 0,0 km/h (0 Bft)
08.09.2017 05:50 6,3 C 95 % 1015,1 hPa 0,0 mm W 279 0,0 km/h (0 Bft)
08.09.2017 05:55 6,4 C 95 % 1015,1 hPa 0,0 mm W 279 0,0 km/h (0 Bft)
08.09.2017 06:00 6,5 C 95 % 1015,1 hPa 0,0 mm W 279 0,0 km/h (0 Bft)
08.09.2017 06:05 6,4 C 95 % 1015,1 hPa 0,0 mm W 279 0,0 km/h (0 Bft)
08.09.2017 06:10 6,3 C 95 % 1015,0 hPa 0,0 mm W 279 0,0 km/h (0 Bft)
08.09.2017 06:15 6,4 C 95 % 1014,9 hPa 0,0 mm W 279 0,0 km/h (0 Bft)
08.09.2017 06:20 6,6 C 95 % 1014,8 hPa 0,0 mm W 279 0,0 km/h (0 Bft)
08.09.2017 06:25 6,6 C 95 % 1015,0 hPa 0,0 mm W 279 0,0 km/h (0 Bft)
08.09.2017 06:30 6,4 C 95 % 1014,9 hPa 0,0 mm W 279 0,0 km/h (0 Bft)
08.09.2017 06:35 6,1 C 95 % 1014,9 hPa 0,0 mm W 279 0,0 km/h (0 Bft)
08.09.2017 06:40 6,2 C 95 % 1014,9 hPa 0,0 mm W 279 0,0 km/h (0 Bft)
08.09.2017 06:45 6,3 C 95 % 1014,9 hPa 0,0 mm W 279 0,0 km/h (0 Bft)
08.09.2017 06:50 6,3 C 95 % 1014,9 hPa 0,0 mm W 279 0,0 km/h (0 Bft)
08.09.2017 06:55 6,3 C 95 % 1014,9 hPa 0,0 mm W 279 0,0 km/h (0 Bft)
08.09.2017 07:00 6,3 C 95 % 1014,9 hPa 0,0 mm W 279 0,0 km/h (0 Bft)
08.09.2017 07:05 6,6 C 95 % 1015,0 hPa 0,0 mm W 279 0,0 km/h (0 Bft)
08.09.2017 07:10 6,7 C 95 % 1015,0 hPa 0,0 mm W 279 0,0 km/h (0 Bft)
08.09.2017 07:15 6,8 C 95 % 1015,0 hPa 0,0 mm W 279 0,0 km/h (0 Bft)
08.09.2017 07:20 7,2 C 95 % 1015,1 hPa 0,0 mm W 279 0,0 km/h (0 Bft)
08.09.2017 07:25 7,2 C 95 % 1015,1 hPa 0,0 mm W 279 0,0 km/h (0 Bft)
08.09.2017 07:30 7,5 C 95 % 1015,1 hPa 0,0 mm W 279 0,0 km/h (0 Bft)
08.09.2017 07:35 7,3 C 95 % 1015,0 hPa 0,0 mm W 279 0,0 km/h (0 Bft)
08.09.2017 07:40 7,6 C 95 % 1015,1 hPa 0,0 mm W 279 0,0 km/h (0 Bft)
08.09.2017 07:45 8,1 C 95 % 1015,1 hPa 0,0 mm W 279 0,0 km/h (0 Bft)
08.09.2017 07:50 8,3 C 95 % 1015,0 hPa 0,0 mm W 279 0,0 km/h (0 Bft)
08.09.2017 07:55 8,8 C 95 % 1015,0 hPa 0,0 mm W 279 0,0 km/h (0 Bft)
08.09.2017 08:00 9,2 C 95 % 1015,1 hPa 0,0 mm W 279 0,0 km/h (0 Bft)
08.09.2017 08:05 9,4 C 95 % 1015,1 hPa 0,0 mm W 279 0,0 km/h (0 Bft)
08.09.2017 08:10 9,6 C 95 % 1015,1 hPa 0,0 mm W 279 0,0 km/h (0 Bft)
08.09.2017 08:15 10,1 C 95 % 1015,1 hPa 0,0 mm W 279 0,0 km/h (0 Bft)
08.09.2017 08:20 10,6 C 94 % 1015,1 hPa 0,0 mm W 279 0,0 km/h (0 Bft)
08.09.2017 08:25 10,8 C 93 % 1015,0 hPa 0,0 mm W 279 0,0 km/h (0 Bft)
08.09.2017 08:30 11,0 C 93 % 1015,0 hPa 0,0 mm W 279 0,0 km/h (0 Bft)
08.09.2017 08:35 11,3 C 92 % 1015,0 hPa 0,0 mm W 279 0,0 km/h (0 Bft)
08.09.2017 08:40 11,0 C 92 % 1014,9 hPa 0,0 mm W 279 0,0 km/h (0 Bft)
08.09.2017 08:45 10,9 C 92 % 1015,0 hPa 0,0 mm W 279 0,0 km/h (0 Bft)
08.09.2017 08:50 11,1 C 93 % 1014,9 hPa 0,0 mm W 279 0,0 km/h (0 Bft)
08.09.2017 08:55 11,3 C 92 % 1014,8 hPa 0,0 mm W 279 0,0 km/h (0 Bft)
08.09.2017 09:00 11,7 C 93 % 1014,8 hPa 0,0 mm W 279 0,0 km/h (0 Bft)
08.09.2017 09:05 11,7 C 93 % 1014,7 hPa 0,0 mm SO 139 0,0 km/h (0 Bft)
08.09.2017 09:10 12,0 C 93 % 1014,7 hPa 0,0 mm SO 139 0,0 km/h (0 Bft)
08.09.2017 09:15 12,3 C 92 % 1014,7 hPa 0,0 mm SO 139 0,0 km/h (0 Bft)
08.09.2017 09:20 12,3 C 92 % 1014,7 hPa 0,0 mm SO 139 6,4 km/h (2 Bft)
08.09.2017 09:25 12,6 C 92 % 1014,7 hPa 0,0 mm SO 139 4,8 km/h (1 Bft)
08.09.2017 09:30 12,8 C 91 % 1014,6 hPa 0,0 mm O-SO 114 6,4 km/h (2 Bft)
08.09.2017 09:35 12,8 C 91 % 1014,6 hPa 0,0 mm O-SO 115 6,4 km/h (2 Bft)
08.09.2017 09:40 13,1 C 91 % 1014,6 hPa 0,0 mm SO 130 6,4 km/h (2 Bft)
08.09.2017 09:45 13,2 C 90 % 1014,6 hPa 0,0 mm SO 130 4,8 km/h (1 Bft)
08.09.2017 09:50 13,3 C 90 % 1014,6 hPa 0,0 mm SO 130 4,8 km/h (1 Bft)
08.09.2017 09:55 13,8 C 90 % 1014,5 hPa 0,0 mm SO 130 4,8 km/h (1 Bft)
08.09.2017 10:00 13,9 C 89 % 1014,5 hPa 0,0 mm SO 130 4,8 km/h (1 Bft)
08.09.2017 10:05 14,3 C 89 % 1014,5 hPa 0,0 mm O-SO 123 4,8 km/h (1 Bft)
08.09.2017 10:10 14,6 C 88 % 1014,5 hPa 0,0 mm O 92 8,0 km/h (2 Bft)
08.09.2017 10:15 14,6 C 87 % 1014,6 hPa 0,0 mm O 92 4,8 km/h (1 Bft)
08.09.2017 10:20 14,7 C 86 % 1014,6 hPa 0,0 mm O 92 3,2 km/h (1 Bft)
08.09.2017 10:25 15,1 C 85 % 1014,6 hPa 0,0 mm O 92 8,0 km/h (2 Bft)
08.09.2017 10:30 15,3 C 84 % 1014,5 hPa 0,0 mm O 92 3,2 km/h (1 Bft)
08.09.2017 10:35 15,3 C 84 % 1014,5 hPa 0,0 mm S-SO 167 4,8 km/h (1 Bft)
08.09.2017 10:40 15,6 C 84 % 1014,4 hPa 0,0 mm S-SO 167 4,8 km/h (1 Bft)
08.09.2017 10:45 15,8 C 79 % 1014,3 hPa 0,0 mm S-SO 167 3,2 km/h (1 Bft)
08.09.2017 10:50 16,0 C 82 % 1014,2 hPa 0,0 mm O 94 4,8 km/h (1 Bft)
08.09.2017 10:55 16,0 C 80 % 1014,2 hPa 0,0 mm S-SO 167 6,4 km/h (2 Bft)
08.09.2017 11:00 16,2 C 79 % 1014,1 hPa 0,0 mm SO 130 4,8 km/h (1 Bft)
08.09.2017 11:05 16,2 C 81 % 1014,0 hPa 0,0 mm O 80 4,8 km/h (1 Bft)
08.09.2017 11:10 16,3 C 80 % 1014,0 hPa 0,0 mm O-SO 116 4,8 km/h (1 Bft)
08.09.2017 11:15 16,5 C 78 % 1013,9 hPa 0,0 mm O-SO 116 4,8 km/h (1 Bft)
08.09.2017 11:20 16,6 C 76 % 1013,8 hPa 0,0 mm O-SO 104 6,4 km/h (2 Bft)
08.09.2017 11:25 16,9 C 79 % 1013,6 hPa 0,0 mm SO 139 4,8 km/h (1 Bft)
08.09.2017 11:30 16,9 C 74 % 1013,5 hPa 0,0 mm SO 138 4,8 km/h (1 Bft)
08.09.2017 11:35 17,1 C 76 % 1013,5 hPa 0,0 mm O 100 6,4 km/h (2 Bft)
08.09.2017 11:40 17,4 C 73 % 1013,4 hPa 0,0 mm O-SO 110 4,8 km/h (1 Bft)
08.09.2017 11:45 17,4 C 69 % 1013,3 hPa 0,0 mm O-SO 110 4,8 km/h (1 Bft)
08.09.2017 11:50 17,6 C 73 % 1013,2 hPa 0,0 mm O-SO 111 4,8 km/h (1 Bft)
08.09.2017 11:55 17,7 C 73 % 1013,1 hPa 0,0 mm SO 133 8,0 km/h (2 Bft)
08.09.2017 12:00 17,7 C 71 % 1013,0 hPa 0,0 mm O-SO 121 6,4 km/h (2 Bft)
08.09.2017 12:05 17,8 C 68 % 1012,8 hPa 0,0 mm S-SO 147 6,4 km/h (2 Bft)
08.09.2017 12:10 17,9 C 66 % 1012,8 hPa 0,0 mm O-SO 108 4,8 km/h (1 Bft)
08.09.2017 12:15 18,1 C 64 % 1012,7 hPa 0,0 mm O-SO 116 6,4 km/h (2 Bft)
08.09.2017 12:20 18,3 C 62 % 1012,8 hPa 0,0 mm O-SO 116 3,2 km/h (1 Bft)
08.09.2017 12:25 18,3 C 67 % 1012,7 hPa 0,0 mm O-SO 109 4,8 km/h (1 Bft)
08.09.2017 12:30 18,4 C 68 % 1012,7 hPa 0,0 mm S-SO 160 8,0 km/h (2 Bft)
08.09.2017 12:35 18,6 C 68 % 1012,6 hPa 0,0 mm O-SO 113 8,0 km/h (2 Bft)
08.09.2017 12:40 18,5 C 66 % 1012,5 hPa 0,0 mm O-SO 107 8,0 km/h (2 Bft)
08.09.2017 12:45 18,6 C 66 % 1012,4 hPa 0,0 mm SO 136 6,4 km/h (2 Bft)
08.09.2017 12:50 18,7 C 70 % 1012,4 hPa 0,0 mm O-SO 108 8,0 km/h (2 Bft)
08.09.2017 12:55 18,8 C 68 % 1012,3 hPa 0,0 mm O 99 8,0 km/h (2 Bft)
08.09.2017 13:00 18,8 C 63 % 1012,1 hPa 0,0 mm SO 134 8,0 km/h (2 Bft)
08.09.2017 13:05 18,8 C 61 % 1012,1 hPa 0,0 mm O 92 8,0 km/h (2 Bft)
08.09.2017 13:10 18,8 C 64 % 1012,1 hPa 0,0 mm O-SO 104 8,0 km/h (2 Bft)
08.09.2017 13:15 18,9 C 61 % 1012,0 hPa 0,0 mm SO 139 4,8 km/h (1 Bft)
08.09.2017 13:20 19,1 C 65 % 1011,9 hPa 0,0 mm SO 139 8,0 km/h (2 Bft)
08.09.2017 13:25 18,9 C 66 % 1011,9 hPa 0,0 mm SO 138 4,8 km/h (1 Bft)
08.09.2017 13:30 18,9 C 60 % 1011,7 hPa 0,0 mm S-SO 168 6,4 km/h (2 Bft)
08.09.2017 13:35 19,0 C 66 % 1011,7 hPa 0,0 mm S-SO 162 8,0 km/h (2 Bft)
08.09.2017 13:40 19,2 C 62 % 1011,6 hPa 0,0 mm S-SO 168 6,4 km/h (2 Bft)
08.09.2017 13:45 19,3 C 65 % 1011,7 hPa 0,0 mm SO 124 8,0 km/h (2 Bft)
08.09.2017 13:50 19,2 C 66 % 1011,6 hPa 0,0 mm S-SO 149 4,8 km/h (1 Bft)
08.09.2017 13:55 19,2 C 61 % 1011,4 hPa 0,0 mm O-NO 78 8,0 km/h (2 Bft)
08.09.2017 14:00 19,4 C 66 % 1011,4 hPa 0,0 mm O-SO 117 4,8 km/h (1 Bft)
08.09.2017 14:05 19,3 C 67 % 1011,4 hPa 0,0 mm O-SO 103 4,8 km/h (1 Bft)
08.09.2017 14:10 19,5 C 67 % 1011,2 hPa 0,0 mm O 96 4,8 km/h (1 Bft)
08.09.2017 14:15 19,5 C 65 % 1011,2 hPa 0,0 mm O-NO 58 4,8 km/h (1 Bft)
08.09.2017 14:20 19,5 C 67 % 1011,1 hPa 0,0 mm S-SO 163 8,0 km/h (2 Bft)
08.09.2017 14:25 19,4 C 67 % 1011,1 hPa 0,0 mm S-SO 163 8,0 km/h (2 Bft)
08.09.2017 14:30 19,4 C 66 % 1011,0 hPa 0,0 mm O-SO 113 4,8 km/h (1 Bft)
08.09.2017 14:35 19,6 C 67 % 1011,0 hPa 0,0 mm O-NO 64 4,8 km/h (1 Bft)
08.09.2017 14:40 19,4 C 66 % 1011,0 hPa 0,0 mm SO 134 6,4 km/h (2 Bft)
08.09.2017 14:45 19,5 C 65 % 1010,8 hPa 0,0 mm O-NO 72 4,8 km/h (1 Bft)
08.09.2017 14:50 19,8 C 66 % 1010,7 hPa 0,0 mm W-NW 290 6,4 km/h (2 Bft)
08.09.2017 14:55 20,4 C 62 % 1010,7 hPa 0,0 mm W 276 9,7 km/h (2 Bft)
08.09.2017 15:00 20,3 C 64 % 1010,6 hPa 0,0 mm W 281 6,4 km/h (2 Bft)
08.09.2017 15:05 19,7 C 65 % 1010,6 hPa 0,0 mm W 278 3,2 km/h (1 Bft)
08.09.2017 15:10 19,4 C 64 % 1010,5 hPa 0,0 mm SO 146 6,4 km/h (2 Bft)
08.09.2017 15:15 19,6 C 69 % 1010,4 hPa 0,0 mm SO 136 4,8 km/h (1 Bft)
08.09.2017 15:20 19,5 C 65 % 1010,3 hPa 0,0 mm NO 41 4,8 km/h (1 Bft)
08.09.2017 15:25 19,8 C 66 % 1010,2 hPa 0,0 mm N-NW 333 1,6 km/h (1 Bft)
08.09.2017 15:30 19,9 C 67 % 1010,1 hPa 0,0 mm SO 139 4,8 km/h (1 Bft)
08.09.2017 15:35 19,6 C 66 % 1010,1 hPa 0,0 mm S-SO 165 4,8 km/h (1 Bft)
08.09.2017 15:40 19,6 C 70 % 1009,9 hPa 0,0 mm O-SO 121 4,8 km/h (1 Bft)
08.09.2017 15:45 19,4 C 66 % 1009,8 hPa 0,0 mm O-SO 121 4,8 km/h (1 Bft)
08.09.2017 15:50 19,5 C 69 % 1009,8 hPa 0,0 mm O-SO 121 1,6 km/h (1 Bft)
08.09.2017 15:55 19,7 C 65 % 1009,8 hPa 0,0 mm W-SW 253 3,2 km/h (1 Bft)
08.09.2017 16:00 19,7 C 68 % 1009,8 hPa 0,0 mm W 277 4,8 km/h (1 Bft)
08.09.2017 16:05 19,6 C 69 % 1009,7 hPa 0,0 mm S 175 6,4 km/h (2 Bft)
08.09.2017 16:10 19,5 C 69 % 1009,7 hPa 0,0 mm S 180 4,8 km/h (1 Bft)
08.09.2017 16:15 19,7 C 68 % 1009,6 hPa 0,0 mm W-NW 287 4,8 km/h (1 Bft)
08.09.2017 16:20 19,4 C 71 % 1009,6 hPa 0,0 mm W-NW 286 3,2 km/h (1 Bft)
08.09.2017 16:25 19,4 C 70 % 1009,5 hPa 0,0 mm SO 136 3,2 km/h (1 Bft)
08.09.2017 16:30 19,5 C 71 % 1009,5 hPa 0,0 mm W-NW 294 4,8 km/h (1 Bft)
08.09.2017 16:35 19,5 C 69 % 1009,5 hPa 0,0 mm S 173 4,8 km/h (1 Bft)
08.09.2017 16:40 19,6 C 69 % 1009,4 hPa 0,0 mm S-SW 194 4,8 km/h (1 Bft)
08.09.2017 16:45 19,4 C 69 % 1009,4 hPa 0,0 mm O-SO 121 4,8 km/h (1 Bft)
08.09.2017 16:50 19,4 C 71 % 1009,2 hPa 0,0 mm SO 141 3,2 km/h (1 Bft)
08.09.2017 16:55 19,4 C 71 % 1009,2 hPa 0,0 mm SO 141 3,2 km/h (1 Bft)
08.09.2017 17:00 19,4 C 69 % 1009,1 hPa 0,0 mm O 98 3,2 km/h (1 Bft)
08.09.2017 17:05 19,3 C 69 % 1009,0 hPa 0,0 mm N-NO 13 9,7 km/h (2 Bft)
08.09.2017 17:10 19,2 C 70 % 1009,1 hPa 0,0 mm N-NO 13 9,7 km/h (2 Bft)
08.09.2017 17:15 19,3 C 70 % 1009,1 hPa 0,0 mm N 5 9,7 km/h (2 Bft)
08.09.2017 17:20 19,3 C 69 % 1009,0 hPa 0,0 mm O-NO 63 8,0 km/h (2 Bft)
08.09.2017 17:25 19,1 C 71 % 1009,0 hPa 0,0 mm O-NO 65 12,9 km/h (3 Bft)
08.09.2017 17:30 18,9 C 70 % 1008,9 hPa 0,0 mm N-NO 28 8,0 km/h (2 Bft)
08.09.2017 17:35 18,8 C 73 % 1008,8 hPa 0,0 mm NO 41 8,0 km/h (2 Bft)
08.09.2017 17:40 18,8 C 74 % 1008,8 hPa 0,0 mm NO 52 6,4 km/h (2 Bft)
08.09.2017 17:45 18,7 C 74 % 1008,8 hPa 0,0 mm O-NO 71 6,4 km/h (2 Bft)
08.09.2017 17:50 18,7 C 71 % 1008,7 hPa 0,0 mm NO 46 8,0 km/h (2 Bft)
08.09.2017 17:55 18,6 C 74 % 1008,7 hPa 0,0 mm O-NO 69 8,0 km/h (2 Bft)
08.09.2017 18:00 18,4 C 76 % 1008,6 hPa 0,0 mm O 80 8,0 km/h (2 Bft)
08.09.2017 18:05 18,2 C 78 % 1008,6 hPa 0,0 mm SO 126 6,4 km/h (2 Bft)
08.09.2017 18:10 18,0 C 79 % 1008,5 hPa 0,0 mm O-SO 117 6,4 km/h (2 Bft)
08.09.2017 18:15 17,8 C 80 % 1008,4 hPa 0,0 mm O-SO 122 6,4 km/h (2 Bft)
08.09.2017 18:20 17,8 C 81 % 1008,4 hPa 0,0 mm O-SO 119 6,4 km/h (2 Bft)
08.09.2017 18:25 17,6 C 82 % 1008,3 hPa 0,0 mm O 98 9,7 km/h (2 Bft)
08.09.2017 18:30 17,5 C 83 % 1008,3 hPa 0,0 mm O 83 8,0 km/h (2 Bft)
08.09.2017 18:35 17,4 C 82 % 1008,4 hPa 0,0 mm O-NO 74 6,4 km/h (2 Bft)
08.09.2017 18:40 17,3 C 82 % 1008,4 hPa 0,0 mm O-NO 67 6,4 km/h (2 Bft)
08.09.2017 18:45 17,2 C 80 % 1008,4 hPa 0,0 mm O-NO 69 6,4 km/h (2 Bft)
08.09.2017 18:50 17,1 C 80 % 1008,4 hPa 0,0 mm O-NO 66 4,8 km/h (1 Bft)
08.09.2017 18:55 16,8 C 81 % 1008,3 hPa 0,0 mm O-NO 66 1,6 km/h (1 Bft)
08.09.2017 19:00 16,5 C 84 % 1008,3 hPa 0,0 mm O-NO 66 1,6 km/h (1 Bft)
08.09.2017 19:05 16,4 C 83 % 1008,3 hPa 0,0 mm O-NO 66 0,0 km/h (0 Bft)
08.09.2017 19:10 16,4 C 84 % 1008,4 hPa 0,0 mm O-NO 66 0,0 km/h (0 Bft)
08.09.2017 19:15 16,1 C 84 % 1008,4 hPa 0,0 mm O-NO 66 0,0 km/h (0 Bft)
08.09.2017 19:20 15,6 C 85 % 1008,4 hPa 0,0 mm O-NO 66 1,6 km/h (1 Bft)
08.09.2017 19:25 15,1 C 85 % 1008,3 hPa 0,0 mm O-NO 66 1,6 km/h (1 Bft)
08.09.2017 19:30 14,8 C 86 % 1008,3 hPa 0,0 mm O-NO 66 3,2 km/h (1 Bft)
08.09.2017 19:35 14,8 C 87 % 1008,3 hPa 0,0 mm O-NO 66 1,6 km/h (1 Bft)
08.09.2017 19:40 14,8 C 87 % 1008,4 hPa 0,0 mm O-NO 66 1,6 km/h (1 Bft)
08.09.2017 19:45 14,7 C 87 % 1008,5 hPa 0,0 mm O-NO 66 0,0 km/h (0 Bft)
08.09.2017 19:50 14,3 C 87 % 1008,5 hPa 0,0 mm O-NO 66 1,6 km/h (1 Bft)
08.09.2017 19:55 13,8 C 89 % 1008,6 hPa 0,0 mm O-NO 66 1,6 km/h (1 Bft)
08.09.2017 20:00 13,9 C 90 % 1008,6 hPa 0,0 mm O-NO 66 3,2 km/h (1 Bft)
08.09.2017 20:05 13,9 C 90 % 1008,6 hPa 0,0 mm O-NO 66 0,0 km/h (0 Bft)
08.09.2017 20:10 13,7 C 89 % 1008,7 hPa 0,0 mm O-NO 66 1,6 km/h (1 Bft)
08.09.2017 20:15 13,4 C 91 % 1008,8 hPa 0,0 mm O-NO 66 0,0 km/h (0 Bft)
08.09.2017 20:20 13,1 C 91 % 1008,8 hPa 0,0 mm O-NO 66 1,6 km/h (1 Bft)
08.09.2017 20:25 13,1 C 92 % 1008,8 hPa 0,0 mm O-NO 66 3,2 km/h (1 Bft)
08.09.2017 20:30 13,2 C 92 % 1008,8 hPa 0,0 mm O-NO 66 0,0 km/h (0 Bft)
08.09.2017 20:35 12,9 C 92 % 1008,8 hPa 0,0 mm O-NO 66 0,0 km/h (0 Bft)
08.09.2017 20:40 12,8 C 92 % 1008,8 hPa 0,0 mm O-NO 66 0,0 km/h (0 Bft)
08.09.2017 20:45 12,8 C 92 % 1008,9 hPa 0,0 mm O-NO 66 0,0 km/h (0 Bft)
08.09.2017 20:50 12,7 C 92 % 1008,9 hPa 0,0 mm O-NO 66 0,0 km/h (0 Bft)
08.09.2017 20:55 12,8 C 93 % 1008,9 hPa 0,0 mm O-NO 66 0,0 km/h (0 Bft)
08.09.2017 21:00 12,8 C 93 % 1008,9 hPa 0,0 mm O-NO 66 0,0 km/h (0 Bft)
08.09.2017 21:05 12,7 C 92 % 1008,8 hPa 0,0 mm O-NO 66 0,0 km/h (0 Bft)
08.09.2017 21:10 12,6 C 93 % 1008,8 hPa 0,0 mm O-NO 66 0,0 km/h (0 Bft)
08.09.2017 21:15 12,3 C 93 % 1008,8 hPa 0,0 mm O-NO 66 0,0 km/h (0 Bft)
08.09.2017 21:20 12,0 C 93 % 1008,8 hPa 0,0 mm O-NO 66 0,0 km/h (0 Bft)
08.09.2017 21:25 12,1 C 93 % 1008,7 hPa 0,0 mm O-NO 66 0,0 km/h (0 Bft)
08.09.2017 21:30 11,9 C 93 % 1008,6 hPa 0,0 mm O-NO 66 0,0 km/h (0 Bft)
08.09.2017 21:35 12,1 C 94 % 1008,7 hPa 0,0 mm O-NO 66 0,0 km/h (0 Bft)
08.09.2017 21:40 12,2 C 93 % 1008,6 hPa 0,0 mm O-NO 66 0,0 km/h (0 Bft)
08.09.2017 21:45 11,9 C 93 % 1008,7 hPa 0,0 mm O-NO 66 0,0 km/h (0 Bft)
08.09.2017 21:50 11,9 C 94 % 1008,6 hPa 0,0 mm O-NO 66 1,6 km/h (1 Bft)
08.09.2017 21:55 12,0 C 94 % 1008,6 hPa 0,0 mm O-NO 66 1,6 km/h (1 Bft)
08.09.2017 22:00 11,8 C 93 % 1008,6 hPa 0,0 mm O-NO 66 0,0 km/h (0 Bft)
08.09.2017 22:05 11,8 C 94 % 1008,5 hPa 0,0 mm O-NO 66 0,0 km/h (0 Bft)
08.09.2017 22:10 11,8 C 94 % 1008,5 hPa 0,0 mm O-NO 66 1,6 km/h (1 Bft)
08.09.2017 22:15 11,7 C 94 % 1008,5 hPa 0,0 mm O-NO 66 0,0 km/h (0 Bft)
08.09.2017 22:20 11,4 C 94 % 1008,5 hPa 0,0 mm O-NO 66 0,0 km/h (0 Bft)
08.09.2017 22:25 11,4 C 94 % 1008,4 hPa 0,0 mm O-NO 66 1,6 km/h (1 Bft)
08.09.2017 22:30 11,5 C 94 % 1008,4 hPa 0,0 mm O-NO 66 0,0 km/h (0 Bft)
08.09.2017 22:35 11,3 C 94 % 1008,3 hPa 0,0 mm O-NO 66 0,0 km/h (0 Bft)
08.09.2017 22:40 11,2 C 94 % 1008,3 hPa 0,0 mm O-NO 66 1,6 km/h (1 Bft)
08.09.2017 22:45 11,2 C 94 % 1008,2 hPa 0,0 mm O-NO 66 1,6 km/h (1 Bft)
08.09.2017 22:50 11,1 C 94 % 1008,2 hPa 0,0 mm O-NO 66 0,0 km/h (0 Bft)
08.09.2017 22:55 11,1 C 94 % 1008,1 hPa 0,0 mm O-NO 66 0,0 km/h (0 Bft)
08.09.2017 23:00 11,2 C 94 % 1008,1 hPa 0,0 mm O-NO 66 1,6 km/h (1 Bft)
08.09.2017 23:05 11,1 C 94 % 1008,2 hPa 0,0 mm O-NO 66 1,6 km/h (1 Bft)
08.09.2017 23:10 10,8 C 94 % 1008,2 hPa 0,0 mm O-NO 63 1,6 km/h (1 Bft)
08.09.2017 23:15 10,8 C 94 % 1008,1 hPa 0,0 mm W 267 4,8 km/h (1 Bft)
08.09.2017 23:20 10,9 C 94 % 1008,1 hPa 0,0 mm W 267 3,2 km/h (1 Bft)
08.09.2017 23:25 11,0 C 94 % 1008,1 hPa 0,0 mm W 267 3,2 km/h (1 Bft)
08.09.2017 23:30 11,2 C 94 % 1008,1 hPa 0,0 mm W 267 0,0 km/h (0 Bft)
08.09.2017 23:35 11,2 C 94 % 1008,1 hPa 0,0 mm W 267 0,0 km/h (0 Bft)
08.09.2017 23:40 11,0 C 94 % 1008,0 hPa 0,0 mm W 267 0,0 km/h (0 Bft)
08.09.2017 23:45 10,8 C 94 % 1008,1 hPa 0,0 mm W 267 0,0 km/h (0 Bft)
08.09.2017 23:50 10,8 C 94 % 1008,0 hPa 0,0 mm W 267 0,0 km/h (0 Bft)
08.09.2017 23:55 11,0 C 94 % 1008,0 hPa 0,0 mm W 267 3,2 km/h (1 Bft)
_ Min-Zeit 06:35 13:30 23:40 - - - 00:05
Minimum _ 6,1 C 60 % 1008,0 hPa - - - 0,0 km/h (0 Bft)
_ Max-Zeit 14:55 00:20 00:10 00:00 - - 17:25
Maximum _ 20,4 C 95 % 1017,3 hPa 0,0 mm - - 12,9 km/h
O-SO (3 Bft)
Durchschnitt _ 12,9 C 85 % 1012,5 hPa #0,0 mm W - 2,7 km/h (1 Bft)